Caldwell, NJ

2:13 PM EDT on May 26, 2017 (GMT -0400)
Essex County

Weather History for KCDW - April, 2014

Change the Weather History Date:

Friday, April 18, 2014

  Actual Average Record
Temperature  
Mean Temperature 39 °F -  
Max Temperature 50 °F 63 °F 91 °F (2002)
Min Temperature 30 °F 39 °F 28 °F (1962)
Degree Days  
Heating Degree Days 26    
Moisture  
Dew Point 28 °F    
Average Humidity 66    
Maximum Humidity 89    
Minimum Humidity 44    
Precipitation  
Precipitation 0.00 in - - ()
Sea Level Pressure  
Sea Level Pressure 30.49 in    
Wind  
Wind Speed 3 mph (East)    
Max Wind Speed 8 mph    
Max Gust Speed -    
Visibility 10 miles    
Events      
Averages and records for this station are not official NWS values.
T = Trace of Precipitation, MM = Missing Value Source: NWS Daily Summary

Daily Weather History Graph

Daily Weather History Graph

Search for Another Location

Airport or City:

Trip Planner

Search our weather history database for the weather conditions in past years. The results will help you decide how hot, cold, wet, or windy it might be!

Date:

Astronomy

Apr. 18, 2014 Rise Set
Actual Time 6:13 AM EDT 7:39 PM EDT
Civil Twilight 5:45 AM EDT 8:08 PM EDT
Nautical Twilight 5:10 AM EDT 8:43 PM EDT
Astronomical Twilight 4:34 AM EDT 9:19 PM EDT
Moon 11:23 PM EDT (4/18) 8:32 AM EDT (4/18)
Length of Visible Light 14h 23m
Length of Day
13h 26m
Waning Gibbous, 87% of the Moon is Illuminated
Apr 18
Waning Gibbous
Apr 22
Last Quarter
Apr 29
New
May 6
First Quarter
May 14
Full

Hourly Weather History & Observations

Time (EDT) Temp. Windchill Dew Point Humidity Pressure Visibility Wind Dir Wind Speed Gust Speed Precip Events Conditions
12:53 AM 35.1 °F - 30.9 °F 85% 30.63 in 10.0 mi Calm Calm - N/A   Clear
1:53 AM 34.0 °F - 30.0 °F 85% 30.64 in 10.0 mi Calm Calm - N/A   Clear
2:53 AM 32.0 °F - 28.9 °F 88% 30.61 in 10.0 mi Calm Calm - N/A   Clear
3:53 AM 30.9 °F - 28.0 °F 89% 30.58 in 10.0 mi Calm Calm - N/A   Clear
4:53 AM 33.1 °F 27.7 °F 28.0 °F 82% 30.53 in 10.0 mi East 5.8 mph - N/A   Clear
5:53 AM 33.1 °F 28.7 °F 28.0 °F 82% 30.55 in 10.0 mi NE 4.6 mph - N/A   Mostly Cloudy
6:53 AM 34.0 °F 28.0 °F 26.1 °F 73% 30.57 in 10.0 mi ENE 6.9 mph - N/A   Overcast
7:35 AM 33.8 °F 27.7 °F 26.6 °F 75% 30.55 in 10.0 mi ENE 6.9 mph - N/A   Partly Cloudy
7:53 AM 35.1 °F 31.0 °F 26.1 °F 70% 30.58 in 10.0 mi East 4.6 mph - N/A   Clear
8:53 AM 37.0 °F 32.4 °F 27.0 °F 67% 30.58 in 10.0 mi Variable 5.8 mph - N/A   Partly Cloudy
9:53 AM 37.9 °F 33.5 °F 27.0 °F 65% 30.56 in 10.0 mi ENE 5.8 mph - N/A   Clear
10:53 AM 39.9 °F 35.8 °F 27.0 °F 60% 30.53 in 10.0 mi SE 5.8 mph - N/A   Clear
11:53 AM 42.1 °F 37.1 °F 27.0 °F 55% 30.51 in 10.0 mi ENE 8.1 mph - N/A   Clear
12:53 PM 44.1 °F 40.8 °F 28.0 °F 53% 30.49 in 10.0 mi East 5.8 mph - N/A   Clear
1:53 PM 45.0 °F - 27.0 °F 49% 30.48 in 10.0 mi Calm Calm - N/A   Clear
2:53 PM 46.9 °F - 28.0 °F 48% 30.43 in 10.0 mi Variable 3.5 mph - N/A   Clear
3:53 PM 48.0 °F - 27.0 °F 44% 30.39 in 10.0 mi Calm Calm - N/A   Clear
5:53 PM 48.9 °F - 28.0 °F 44% 30.35 in 10.0 mi South 6.9 mph - N/A   Clear
6:53 PM 46.9 °F - 28.9 °F 50% 30.33 in 10.0 mi SSE 8.1 mph - N/A   Clear
8:53 PM 45.0 °F 42.6 °F 30.0 °F 56% 30.33 in 10.0 mi SW 4.6 mph - N/A   Clear
9:53 PM 43.0 °F - 30.9 °F 62% 30.32 in 10.0 mi Calm Calm - N/A   Clear
11:53 PM 41.0 °F - 32.0 °F 70% 30.30 in 10.0 mi Calm Calm - N/A   Clear